Weather History for Winner, SD

Change the Weather History Date:

Saturday, August 9, 2014

  Actual Average Record
Temperature  
Mean Temperature 70 °F 76 °F  
Max Temperature 84 °F 89 °F 97 °F (2007)
Min Temperature 56 °F 63 °F 54 °F (2012)
Degree Days  
Heating Degree Days 0 0  
Month to date heating degree days 0 0  
Since 1 June heating degree days 49 59  
Since 1 July heating degree days 12 5  
Cooling Degree Days 5 11  
Month to date cooling degree days 76 101  
Year to date cooling degree days 560 607  
Since 1 June cooling degree days 479 577  
Growing Degree Days 20 (Base 50)    
Moisture  
Dew Point 61 °F    
Average Humidity 72    
Maximum Humidity 93    
Minimum Humidity 51    
Precipitation  
Precipitation T in 0.09 in 0.27 in (2013)
Month to date precipitation 2.49 0.76  
Year to date precipitation 11.69 15.44  
Sea Level Pressure  
Sea Level Pressure 29.96 in    
Wind  
Wind Speed 6 mph (South)    
Max Wind Speed 14 mph    
Max Gust Speed 18 mph    
Visibility 10 miles    
Events      
T = Trace of Precipitation, MM = Missing Value Source: NWS Daily Summary

Daily Weather History Graph

Daily Weather History Graph

Search for Another Location

Airport:

Trip Planner

Search our weather history database for the weather conditions in past years. The results will help you decide how hot, cold, wet, or windy it might be!

Date:

Astronomy

Aug. 09, 2014 Rise Set
Actual Time 6:37 AM CDT 8:51 PM CDT
Civil Twilight 6:06 AM CDT 9:22 PM CDT
Nautical Twilight 5:27 AM CDT 10:01 PM CDT
Astronomical Twilight 4:44 AM CDT 10:44 PM CDT
Moon 7:53 PM CDT (8/9) 5:20 AM CDT (8/9)
Length of Visible Light 15h 16m
Length of Day
14h 13m
Waxing Gibbous, 98% of the Moon is Illuminated
Aug 9
Waxing Gibbous
Aug 10
Full
Aug 17
Last Quarter
Aug 25
New
Sep 2
First Quarter

Hourly Weather History & Observations

Time (CDT) Temp. Heat Index Dew Point Humidity Pressure Visibility Wind Dir Wind Speed Gust Speed Precip Events Conditions
12:53 AM 60.1 °F - 57.0 °F 90% 29.95 in 10.0 mi SE 9.2 mph - N/A   Clear
1:53 AM 61.0 °F - 57.9 °F 90% 29.95 in 10.0 mi South 4.6 mph - N/A   Clear
2:53 AM 60.1 °F - 57.0 °F 90% 29.95 in 10.0 mi SSE 5.8 mph - N/A   Clear
3:53 AM 60.1 °F - 57.0 °F 90% 29.95 in 10.0 mi SSW 3.5 mph - N/A   Clear
4:53 AM 57.0 °F - 55.0 °F 93% 29.95 in 10.0 mi WSW 3.5 mph - N/A   Clear
5:53 AM 57.0 °F - 55.0 °F 93% 29.96 in 10.0 mi South 6.9 mph - N/A   Scattered Clouds
6:53 AM 59.0 °F - 57.0 °F 93% 29.97 in 9.0 mi South 6.9 mph - N/A   Mostly Cloudy
7:40 AM 60.1 °F - 57.9 °F 93% 29.98 in 10.0 mi South 9.2 mph - N/A   Scattered Clouds
7:53 AM 60.1 °F - 57.9 °F 93% 29.97 in 9.0 mi South 9.2 mph - N/A   Scattered Clouds
8:04 AM 60.1 °F - 57.9 °F 93% 29.99 in 4.0 mi South 9.2 mph - N/A   Mostly Cloudy
8:44 AM 63.0 °F - 60.1 °F 90% 29.99 in 10.0 mi South 11.5 mph - N/A   Scattered Clouds
8:53 AM 63.0 °F - 60.1 °F 90% 29.97 in 10.0 mi South 12.7 mph - N/A   Mostly Cloudy
9:44 AM 66.0 °F - 62.1 °F 87% 30.00 in 10.0 mi South 10.4 mph - N/A   Overcast
9:53 AM 66.9 °F - 61.0 °F 81% 29.98 in 10.0 mi SSW 8.1 mph - N/A   Mostly Cloudy
10:04 AM 68.0 °F - 62.1 °F 81% 30.01 in 10.0 mi SSW 5.8 mph - N/A   Scattered Clouds
10:53 AM 69.1 °F - 62.1 °F 78% 29.98 in 10.0 mi Calm Calm - 0.00 in   Mostly Cloudy
12:53 PM 78.1 °F - 63.0 °F 60% 29.96 in 10.0 mi South 4.6 mph - N/A   Clear
1:53 PM 81.0 °F 82.7 °F 64.9 °F 58% 29.95 in 10.0 mi Calm Calm - N/A   Clear
2:53 PM 82.9 °F 84.6 °F 64.9 °F 54% 29.95 in 10.0 mi ESE 6.9 mph - N/A   Mostly Cloudy
3:53 PM 84.0 °F 86.3 °F 66.0 °F 55% 29.94 in 10.0 mi SSE 6.9 mph - N/A   Mostly Cloudy
4:53 PM 84.0 °F 85.8 °F 64.9 °F 53% 29.94 in 10.0 mi SSE 11.5 mph - N/A   Partly Cloudy
5:53 PM 81.0 °F 83.0 °F 66.0 °F 60% 29.94 in 10.0 mi SSE 12.7 mph - N/A   Clear
6:53 PM 80.1 °F 82.1 °F 66.0 °F 62% 29.94 in 10.0 mi SSE 9.2 mph - N/A   Clear
7:53 PM 75.9 °F - 66.0 °F 71% 29.96 in 10.0 mi SSE 11.5 mph - N/A   Clear
8:53 PM 73.9 °F - 66.0 °F 76% 29.97 in 10.0 mi SSE 3.5 mph - N/A   Partly Cloudy
11:53 PM 68.0 °F - 64.9 °F 90% 29.99 in 10.0 mi SE 4.6 mph - N/A   Clear